Weather History for Buffalo, WY

Change the Weather History Date:

Sunday, December 22, 2013

  Actual Average Record
Temperature  
Mean Temperature 12 °F 26 °F  
Max Temperature 19 °F 37 °F 58 °F (2005)
Min Temperature 4 °F 15 °F -5 °F (1998)
Degree Days  
Heating Degree Days 53 39  
Month to date heating degree days 823 866  
Since 1 July heating degree days 2531 2700  
Cooling Degree Days 0 0  
Month to date cooling degree days 0 0  
Year to date cooling degree days 709 492  
Moisture  
Dew Point 9 °F    
Average Humidity 86    
Maximum Humidity 92    
Minimum Humidity 80    
Precipitation  
Precipitation 0.03 in 0.01 in 0.08 in (2006)
Month to date precipitation 0.21 0.30  
Year to date precipitation 10.34 13.35  
Sea Level Pressure  
Sea Level Pressure 30.11 in    
Wind  
Wind Speed 7 mph (NNW)    
Max Wind Speed 21 mph    
Max Gust Speed 26 mph    
Visibility 5 miles    
Events Fog , Snow    
T = Trace of Precipitation, MM = Missing Value Source: NWS Daily Summary

Daily Weather History Graph

Daily Weather History Graph

Search for Another Location

Airport:

Trip Planner

Search our weather history database for the weather conditions in past years. The results will help you decide how hot, cold, wet, or windy it might be!

Date:

Astronomy

Dec. 22, 2013 Rise Set
Actual Time 7:40 AM MST 4:31 PM MST
Civil Twilight 7:07 AM MST 5:04 PM MST
Nautical Twilight 6:30 AM MST 5:41 PM MST
Astronomical Twilight 5:54 AM MST 6:16 PM MST
Moon 9:57 PM MST (12/22) 10:27 AM MST (12/22)
Length of Visible Light 9h 57m
Length of Day
8h 50m
Waning Gibbous, 76% of the Moon is Illuminated
Dec 22
Waning Gibbous
Dec 25
Last Quarter
Jan 1
New
Jan 7
First Quarter
Jan 15
Full

Hourly Weather History & Observations

Time (MST) Temp. Windchill Dew Point Humidity Pressure Visibility Wind Dir Wind Speed Gust Speed Precip Events Conditions
12:53 AM 18.0 °F 11.1 °F 14.0 °F 84% 30.02 in 10.0 mi NNE 4.6 mph - N/A   Overcast
1:53 AM 17.1 °F 11.7 °F 14.0 °F 88% 30.04 in 10.0 mi South 3.5 mph - N/A   Overcast
2:53 AM 18.0 °F 9.8 °F 14.0 °F 84% 30.05 in 8.0 mi South 5.8 mph - 0.00 in Snow Light Snow
3:53 AM 17.1 °F - 14.0 °F 88% 30.05 in 6.0 mi Calm Calm - 0.00 in Snow Light Snow
4:53 AM 17.1 °F 11.7 °F 14.0 °F 88% 30.05 in 10.0 mi SSW 3.5 mph - 0.00 in   Overcast
5:53 AM 17.1 °F 7.6 °F 12.9 °F 84% 30.06 in 10.0 mi South 6.9 mph - N/A   Overcast
6:23 AM 18.0 °F 6.1 °F 14.0 °F 84% 29.91 in 2.5 mi South 10.4 mph - 0.00 in Snow Light Snow
6:40 AM 18.0 °F 5.4 °F 15.1 °F 88% 29.90 in 5.0 mi SSE 11.5 mph - 0.00 in   Overcast
6:53 AM 18.0 °F 6.9 °F 15.1 °F 88% 30.04 in 10.0 mi South 9.2 mph - 0.00 in   Overcast
7:53 AM 18.0 °F 9.8 °F 15.1 °F 88% 30.05 in 10.0 mi SE 5.8 mph - N/A   Overcast
8:32 AM 18.0 °F 11.1 °F 15.1 °F 88% 29.92 in 2.5 mi East 4.6 mph - 0.00 in Snow Light Snow
8:42 AM 18.0 °F 11.1 °F 15.1 °F 88% 29.93 in 1.2 mi NE 4.6 mph - 0.00 in Snow Light Snow
8:53 AM 18.0 °F 9.8 °F 15.1 °F 88% 30.09 in 0.8 mi NNE 5.8 mph - 0.00 in Snow Light Snow
9:01 AM 18.0 °F 8.7 °F 15.1 °F 88% 29.95 in 0.8 mi North 6.9 mph - 0.00 in Snow Light Snow
9:15 AM 18.0 °F 7.7 °F 15.1 °F 88% 29.96 in 0.5 mi North 8.1 mph - 0.01 in Fog , Snow Snow
9:39 AM 18.0 °F 5.4 °F 14.0 °F 84% 29.98 in 0.2 mi North 11.5 mph - 0.02 in Fog , Snow Snow
9:53 AM 17.1 °F 2.5 °F 14.0 °F 88% 30.14 in 0.2 mi North 15.0 mph 23.0 mph 0.02 in Fog , Snow Snow
10:20 AM 16.0 °F 2.3 °F 12.0 °F 84% 30.01 in 0.5 mi NNW 12.7 mph 24.2 mph 0.00 in Fog , Snow Snow
10:30 AM 16.0 °F 0.6 °F 12.0 °F 84% 30.01 in 0.2 mi NNW 16.1 mph 25.3 mph 0.01 in Fog , Snow Snow
10:53 AM 16.0 °F 1.7 °F 12.9 °F 88% 30.18 in 0.5 mi North 13.8 mph 25.3 mph 0.01 in Fog , Snow Snow
11:06 AM 16.0 °F 0.1 °F 12.0 °F 84% 30.01 in 0.5 mi North 17.3 mph 24.2 mph 0.00 in Fog , Snow Light Snow
11:24 AM 15.1 °F -2.0 °F 10.9 °F 84% 30.01 in 1.0 mi North 19.6 mph 24.2 mph 0.00 in Snow Light Snow
11:32 AM 15.1 °F 0.5 °F 10.9 °F 84% 30.01 in 2.0 mi North 13.8 mph 24.2 mph 0.00 in Snow Light Snow
11:43 AM 16.0 °F 2.3 °F 10.9 °F 81% 30.01 in 5.0 mi North 12.7 mph 23.0 mph 0.00 in   Haze
11:53 AM 15.1 °F 0.5 °F 10.9 °F 84% 30.17 in 6.0 mi North 13.8 mph 25.3 mph 0.00 in Snow Light Snow
12:53 PM 17.1 °F 7.6 °F 10.9 °F 77% 30.17 in 10.0 mi NW 6.9 mph - 0.00 in   Overcast
1:53 PM 15.1 °F 3.3 °F 10.0 °F 80% 30.20 in 9.0 mi North 9.2 mph - N/A   Overcast
2:39 PM 12.9 °F -0.2 °F 8.1 °F 81% 30.04 in 4.0 mi North 10.4 mph - 0.00 in Snow Light Snow
2:53 PM 12.0 °F -2.0 °F 7.0 °F 80% 30.23 in 6.0 mi North 11.5 mph - 0.00 in Snow Light Snow
3:05 PM 12.0 °F -2.0 °F 7.0 °F 80% 30.06 in 5.0 mi North 11.5 mph 21.9 mph 0.00 in Snow Light Snow
3:14 PM 12.0 °F -4.0 °F 7.0 °F 80% 30.07 in 2.5 mi NNW 15.0 mph 24.2 mph 0.00 in Snow Light Snow
3:31 PM 10.9 °F -4.7 °F 6.1 °F 81% 30.07 in 1.8 mi NNW 13.8 mph 24.2 mph 0.00 in Snow Light Snow
3:38 PM 10.0 °F -7.1 °F 6.1 °F 84% 30.07 in 2.5 mi NNW 16.1 mph 23.0 mph 0.00 in Snow Light Snow
3:46 PM 10.0 °F -5.2 °F 5.0 °F 80% 30.07 in 4.0 mi North 12.7 mph 23.0 mph 0.00 in Snow Light Snow
3:53 PM 10.0 °F -5.2 °F 5.0 °F 80% 30.27 in 6.0 mi NNW 12.7 mph - 0.00 in   Haze
4:53 PM 9.0 °F -2.2 °F 3.9 °F 80% 30.30 in 3.0 mi NNE 6.9 mph - 0.00 in Snow Light Snow
5:28 PM 7.0 °F -5.7 °F 3.0 °F 84% 30.11 in 5.0 mi NNE 8.1 mph - 0.00 in Snow Light Snow
5:53 PM 6.1 °F -7.8 °F 1.9 °F 83% 30.35 in 5.0 mi NNW 9.2 mph - 0.00 in Snow Light Snow
6:04 PM 7.0 °F -4.5 °F 3.0 °F 84% 30.14 in 7.0 mi NNW 6.9 mph - 0.00 in Snow Light Snow
6:40 PM 5.0 °F -4.1 °F 1.0 °F 84% 30.14 in 10.0 mi WNW 4.6 mph - 0.00 in   Overcast
6:53 PM 5.0 °F -2.1 °F 1.0 °F 84% 30.36 in 10.0 mi West 3.5 mph - 0.00 in   Overcast
7:24 PM 5.0 °F - 1.0 °F 84% 30.15 in 9.0 mi Calm Calm - N/A   Overcast
7:53 PM 6.1 °F - 1.9 °F 83% 30.37 in 10.0 mi Calm Calm - N/A   Overcast
8:53 PM 7.0 °F 0.1 °F 3.0 °F 84% 30.38 in 10.0 mi SW 3.5 mph - N/A   Overcast
9:53 PM 9.0 °F -0.9 °F 3.9 °F 80% 30.36 in 10.0 mi South 5.8 mph - N/A   Overcast
10:53 PM 5.0 °F -6.9 °F -0.0 °F 80% 30.39 in 10.0 mi SW 6.9 mph - N/A   Scattered Clouds
11:53 PM 6.1 °F -6.8 °F 1.0 °F 80% 30.38 in 10.0 mi South 8.1 mph - N/A   Overcast